VLG50BK LIRQ-EGKK

Flight info

Callsign VLG50BK
Flight time N/A
Altitude 34000
Route BIBNO1M/23 BIBNO DCT OSBUL DCT ABESI DCT UTAVO DCT ELMUR DCT RIPUS L613 HOC DCT LUL DCT RLP DCT ROTSI DCT KOTUN DCT NINAL DCT KESAX DCT KUNAV
Aircraft A320/M-SDE3FGHIRWY/LB1

Departure

Time 2026-05-01 11:52
Airport Florence Airport, Peretola (LIRQ)

Arrival

Time N/A
Airport London Gatwick Airport (EGKK)
Time Latitude Longitude Altitude Speed Heading
2026-05-01 11:19 43.80381 11.20038 132 ft 0 kts 267°
2026-05-01 11:40 43.80381 11.20037 132 ft 1 kts 267°
2026-05-01 11:41 43.80381 11.19995 127 ft 6 kts 282°
2026-05-01 11:41 43.80411 11.19978 131 ft 4 kts 358°
2026-05-01 11:41 43.80450 11.20006 132 ft 9 kts 44°
2026-05-01 11:41 43.80492 11.20035 133 ft 6 kts 327°
2026-05-01 11:42 43.80496 11.20029 133 ft 0 kts 319°
2026-05-01 11:42 43.80504 11.20018 133 ft 7 kts 312°
2026-05-01 11:43 43.80587 11.20003 131 ft 18 kts 12°
2026-05-01 11:43 43.80710 11.20060 133 ft 18 kts 40°
2026-05-01 11:43 43.80802 11.20199 134 ft 23 kts 47°
2026-05-01 11:44 43.81024 11.20540 133 ft 23 kts 48°
2026-05-01 11:44 43.81120 11.20690 138 ft 19 kts 49°
2026-05-01 11:44 43.81212 11.20830 142 ft 20 kts 48°
2026-05-01 11:44 43.81265 11.20997 147 ft 20 kts 92°
2026-05-01 11:45 43.81258 11.21190 148 ft 20 kts 87°
2026-05-01 11:45 43.81332 11.21330 151 ft 17 kts 48°
2026-05-01 11:45 43.81399 11.21383 152 ft 0 kts 348°
2026-05-01 11:50 43.81406 11.21380 151 ft 3 kts 348°
2026-05-01 11:50 43.81445 11.21366 150 ft 9 kts 344°
2026-05-01 11:50 43.81509 11.21312 147 ft 13 kts 284°
2026-05-01 11:51 43.81462 11.21216 148 ft 14 kts 228°
2026-05-01 11:51 43.81273 11.20923 145 ft 82 kts 229°
2026-05-01 11:51 43.80708 11.20051 135 ft 158 kts 229°
2026-05-01 11:51 43.79911 11.18799 548 ft 178 kts 234°
2026-05-01 11:52 43.79373 11.17268 1324 ft 177 kts 265°
2026-05-01 11:52 43.79573 11.15626 1866 ft 177 kts 305°
2026-05-01 11:52 43.80250 11.14091 2118 ft 199 kts 307°
2026-05-01 11:52 43.80748 11.12159 2417 ft 228 kts 284°
2026-05-01 11:53 43.80946 11.09948 3161 ft 232 kts 278°
2026-05-01 11:53 43.81069 11.07722 3996 ft 232 kts 279°
2026-05-01 11:53 43.81190 11.05481 4738 ft 236 kts 279°
2026-05-01 11:53 43.81365 11.03197 5356 ft 244 kts 289°
2026-05-01 11:54 43.82099 11.01037 5693 ft 256 kts 316°
2026-05-01 11:54 43.83467 10.99387 6181 ft 267 kts 328°
2026-05-01 11:54 43.84959 10.97801 6926 ft 273 kts 328°
2026-05-01 11:54 43.86480 10.96189 7717 ft 277 kts 328°
2026-05-01 11:55 43.88016 10.94558 8536 ft 280 kts 328°
2026-05-01 11:55 43.89568 10.92906 9354 ft 282 kts 328°
2026-05-01 11:55 43.91130 10.91240 10182 ft 284 kts 329°
2026-05-01 11:55 43.92715 10.89549 10758 ft 295 kts 329°
2026-05-01 11:56 43.94409 10.87754 10954 ft 318 kts 328°
2026-05-01 11:56 43.96216 10.85830 11298 ft 334 kts 327°
2026-05-01 11:56 43.98068 10.83838 11965 ft 339 kts 327°
2026-05-01 11:56 43.99938 10.81818 12731 ft 342 kts 327°
2026-05-01 11:57 44.01820 10.79780 13467 ft 344 kts 327°
2026-05-01 11:57 44.03071 10.78426 13901 ft 346 kts 328°
2026-05-01 11:57 44.05629 10.75657 14288 ft 349 kts 328°
2026-05-01 11:57 44.07556 10.73580 14855 ft 351 kts 328°
2026-05-01 11:58 44.09499 10.71490 15500 ft 355 kts 328°
2026-05-01 11:58 44.11460 10.69376 16115 ft 359 kts 328°
2026-05-01 11:58 44.15449 10.65070 17286 ft 366 kts 328°
2026-05-01 11:59 44.17586 10.63165 17874 ft 364 kts 338°
2026-05-01 11:59 44.19917 10.61807 18454 ft 364 kts 345°
2026-05-01 11:59 44.22303 10.60586 18983 ft 367 kts 345°
2026-05-01 12:00 44.26305 10.58531 19890 ft 370 kts 345°
2026-05-01 12:00 44.28726 10.57284 20432 ft 372 kts 344°
2026-05-01 12:00 44.33612 10.54754 21506 ft 377 kts 344°
2026-05-01 12:01 44.36913 10.53041 22224 ft 379 kts 343°
2026-05-01 12:01 44.38556 10.52187 22559 ft 381 kts 343°
2026-05-01 12:01 44.41044 10.50893 23082 ft 383 kts 343°
2026-05-01 12:01 44.43548 10.49591 23573 ft 385 kts 343°
2026-05-01 12:02 44.46063 10.48284 24040 ft 387 kts 343°
2026-05-01 12:02 44.48593 10.46971 24440 ft 388 kts 343°
2026-05-01 12:02 44.51129 10.45650 24834 ft 390 kts 343°
2026-05-01 12:02 44.53680 10.44319 25198 ft 392 kts 343°
2026-05-01 12:03 44.56245 10.42976 25550 ft 394 kts 343°
2026-05-01 12:03 44.58821 10.41626 25937 ft 396 kts 343°
2026-05-01 12:03 44.61406 10.40272 26293 ft 398 kts 343°
2026-05-01 12:03 44.64007 10.38913 26645 ft 400 kts 343°
2026-05-01 12:04 44.66619 10.37547 26986 ft 402 kts 343°
2026-05-01 12:04 44.69244 10.36170 27332 ft 403 kts 343°
2026-05-01 12:04 44.71875 10.34789 27658 ft 405 kts 343°
2026-05-01 12:04 44.74523 10.33402 27981 ft 407 kts 343°
2026-05-01 12:05 44.77187 10.32003 28288 ft 409 kts 343°
2026-05-01 12:05 44.82500 10.28994 28881 ft 417 kts 335°
2026-05-01 12:05 44.84990 10.26846 29124 ft 422 kts 331°
2026-05-01 12:06 44.87466 10.24590 29394 ft 424 kts 331°
2026-05-01 12:06 44.89949 10.22323 29668 ft 426 kts 331°
2026-05-01 12:06 44.92444 10.20045 29928 ft 428 kts 331°
2026-05-01 12:06 44.94946 10.17763 30197 ft 429 kts 331°
2026-05-01 12:07 44.97461 10.15464 30433 ft 431 kts 331°
2026-05-01 12:07 44.99980 10.13160 30633 ft 433 kts 331°
2026-05-01 12:07 45.02513 10.10840 30805 ft 434 kts 331°
2026-05-01 12:07 45.05049 10.08514 31010 ft 435 kts 331°